Temperature
23 22 21 21 20 20 20 20 19 19 19 19 19 18 18 18 18 18 18 18 18 18 18 18 17 18 17 17 17 17 17 17 17 18 18 18 18 18 18 18 18 17 17
23 22 21 21 21 21 20 20 20 19 19 19 19 19 18 18 18 18 18 18 18 18 18 18 18 17 17 17 17 17 17 17 17 17 18 18 19 18 18 18 17 17 17
24 22 22 22 21 21 20 20 20 19 19 19 19 18 18 18 18 18 18 18 18 18 18 17 17 17 17 17 17 17 17 17 17 17 17 18 19 18 18 18 18 17 17
24 23 22 22 21 21 20 20 20 20 19 19 19 18 18 18 18 18 18 18 18 18 17 17 17 17 17 17 17 17 17 17 17 17 17 17 18 18 18 18 18 17 17
24 23 23 22 21 21 20 20 20 20 19 19 19 19 18 18 18 18 18 18 18 18 17 17 17 17 17 17 17 17 17 17 17 17 17 17 17 17 17 17 17 17 17
24 23 22 22 21 21 20 20 20 20 19 19 19 19 18 18 18 18 18 18 18 17 17 17 17 17 17 17 17 17 17 17 17 17 17 17 17 17 17 17 17 17 17
24 23 22 21 21 21 20 20 20 20 19 19 19 19 19 18 18 18 18 18 17 17 17 17 17 17 17 17 17 17 17 17 17 17 17 17 17 17 17 16 16 16 16
24 23 23 22 21 21 20 20 20 20 19 19 19 19 19 18 18 18 18 17 17 17 17 17 17 17 17 17 17 17 17 17 17 16 16 16 16 16 16 16 16 16 16
24 24 23 22 21 21 20 20 19 19 19 19 19 19 18 18 18 18 18 17 17 17 17 17 17 17 17 17 17 17 17 16 16 16 16 16 16 16 16 16 16 15 15
25 24 23 22 21 21 20 20 19 19 19 19 19 18 18 18 18 18 17 17 17 17 17 17 17 17 17 17 16 16 16 16 16 16 16 16 15 15 15 15 15 15 15
25 24 23 22 21 21 20 20 19 19 19 19 18 18 18 18 18 17 17 17 17 17 17 17 17 16 16 16 16 16 16 16 16 15 15 15 15 15 15 15 15 15 15
24 23 22 21 21 20 20 19 19 19 19 18 18 18 18 18 17 17 17 17 17 17 16 16 16 16 16 16 16 15 15 15 15 15 15 14 14 14 14 14 14 15 14
23 22 22 21 20 20 20 19 19 19 19 18 18 18 18 18 17 17 17 17 17 16 16 16 16 16 16 16 15 15 15 15 15 14 14 14 14 14 14 14 14 14 14
22 22 21 21 20 20 20 19 19 19 19 18 18 18 18 17 17 17 17 17 16 16 15 15 15 15 15 15 15 14 14 14 14 14 14 14 14 14 14 14 13 13 13
22 21 21 20 20 20 19 19 19 19 18 18 18 17 17 17 17 17 17 16 16 15 15 15 15 15 15 14 14 14 14 14 14 14 13 13 13 13 13 13 13 13 13
22 21 20 20 20 20 19 19 19 18 18 18 18 17 17 17 16 16 16 16 15 15 15 15 15 14 14 14 14 14 13 13 13 13 13 13 13 13 13 13 13 13 12
21 21 20 20 20 20 19 19 19 18 18 18 17 17 16 16 16 16 15 15 15 15 15 14 14 14 14 14 14 13 13 13 13 13 12 12 12 12 12 12 12 12 12
21 21 20 20 19 19 19 19 18 18 18 17 17 16 16 16 16 15 15 15 15 14 14 14 14 14 14 13 13 13 12 12 12 12 12 12 12 12 11 11 11 11 11
21 21 20 20 19 19 19 19 18 18 17 17 16 16 16 16 15 15 15 15 14 14 13 13 13 13 13 13 13 12 12 12 11 11 11 11 11 11 11 11 11 10 10
20 20 20 19 19 19 19 18 18 17 17 17 16 16 16 15 15 15 15 14 14 13 13 13 13 13 13 12 12 12 11 11 11 11 11 11 11 11 11 10 10 10 10
20 20 19 19 19 19 18 18 18 17 17 16 16 16 16 15 15 15 14 14 13 13 13 13 12 12 12 12 12 12 11 11 11 11 10 10 10 10 10 10 10 10 9
19 19 19 19 19 18 18 18 18 17 17 16 16 15 15 15 14 14 14 13 13 13 12 12 12 11 11 11 11 11 11 11 10 10 10 10 10 10 10 10 10 10 10
19 19 19 18 18 18 18 17 17 17 17 16 16 15 15 14 14 14 13 13 13 12 12 11 11 11 11 11 11 11 11 10 10 10 10 10 10 9 9 9 9 10 10
18 18 18 18 18 18 17 17 17 17 17 16 15 15 15 14 14 13 13 12 12 12 11 11 11 11 10 10 10 10 10 10 10 9 9 9 9 9 9 9 9 9 9
18 18 18 18 18 18 17 17 17 16 16 16 15 14 14 14 13 13 13 12 12 12 11 11 11 11 10 10 10 10 9 9 9 9 9 9 9 9 9 9 9 9 9
18 18 18 17 17 17 17 17 16 16 16 15 15 14 14 13 13 13 12 12 12 12 11 11 11 10 10 10 10 10 10 10 9 9 10 10 10 10 10 10 9 9 9
Wind_Speed
10 9 9 9 9 8 9 9 8 7 6 5 5 4 4 3 3 4 4 4 4 5 5 4 3 4 3 4 5 4 4 4 3 4 4 5 6 5 5 5 5 6 6
10 10 9 9 9 9 9 9 9 8 7 5 4 3 3 3 3 2 2 3 4 4 5 5 4 4 4 5 5 5 5 5 4 4 4 3 4 4 5 5 5 5 5
12 11 11 10 10 9 9 8 7 7 7 6 4 3 3 3 2 2 2 3 4 4 4 4 4 4 5 5 5 6 6 5 4 4 4 3 3 2 3 4 4 4 4
12 12 11 10 9 9 8 7 7 7 6 6 5 5 4 3 3 2 2 2 3 4 4 5 5 5 5 4 6 5 5 6 5 4 5 6 4 3 3 3 3 4 4
11 11 11 10 9 8 8 8 7 6 6 6 6 5 4 3 2 2 1 2 2 3 4 4 4 4 4 4 5 4 6 5 5 5 5 5 5 6 5 5 3 3 3
11 10 10 9 9 8 8 7 7 6 6 6 5 5 4 3 3 2 2 2 1 1 2 3 3 4 3 4 4 4 6 5 6 5 5 5 5 5 5 5 5 4 3
12 11 11 11 10 10 9 8 8 7 6 6 5 5 4 4 4 3 3 2 1 1 1 2 2 2 2 3 3 4 4 5 5 5 4 4 5 4 4 5 5 4 4
12 12 11 11 10 10 10 9 8 7 6 6 5 4 4 3 3 2 2 1 1 1 0 1 1 2 2 2 2 3 3 3 3 4 4 4 4 4 4 3 3 4 4
12 12 12 11 11 10 10 9 8 7 6 5 4 3 3 2 1 1 1 1 0 0 0 0 0 1 1 2 2 2 2 1 2 2 2 3 3 3 3 3 3 4 4
12 12 11 11 10 10 9 9 8 7 6 5 4 3 3 2 1 1 1 2 2 2 2 2 2 2 2 2 2 1 2 2 2 2 3 3 3 2 2 3 3 3 3
12 12 11 11 11 10 10 9 8 7 6 5 4 4 3 3 3 3 3 3 3 3 3 3 3 3 3 3 3 2 2 2 3 3 3 3 3 3 2 2 2 2 2
11 11 11 11 11 10 10 9 8 7 6 6 5 5 4 4 4 4 4 4 4 4 3 3 4 4 4 4 3 3 3 3 4 4 4 4 3 3 3 2 2 1 1
11 11 11 11 11 10 10 9 9 8 8 7 7 6 6 5 5 5 5 5 4 4 4 4 4 4 4 4 4 4 4 4 5 5 5 4 4 4 3 3 2 2 2
12 12 11 11 11 10 10 9 9 9 8 8 8 7 6 6 6 6 5 5 5 5 5 5 5 5 5 5 4 4 5 5 5 6 6 6 6 5 4 3 4 3 3
12 12 12 12 11 11 10 9 9 9 9 8 8 7 7 6 6 6 6 6 6 6 6 6 6 6 6 6 5 5 5 5 6 6 7 8 9 11 9 6 5 4 3
13 13 13 12 12 11 11 10 9 9 9 8 8 7 7 6 6 6 7 7 7 7 7 7 7 7 7 9 9 5 6 6 6 6 6 7 9 10 12 13 13 11 6
13 13 13 12 12 11 11 11 10 10 9 9 8 8 7 7 7 7 7 7 7 7 7 7 8 8 8 9 8 7 6 7 6 6 6 6 7 7 7 9 9 11 12
13 13 13 13 12 12 12 11 11 10 10 9 8 8 7 7 7 7 7 7 7 7 7 7 7 8 8 8 6 5 6 8 8 7 7 7 8 8 7 7 8 9 9
12 12 12 13 13 13 12 12 11 10 10 9 9 8 7 7 7 7 7 7 7 7 7 7 7 7 7 8 6 4 6 7 8 8 9 8 9 9 7 6 7 7 8
10 11 12 13 13 13 12 12 11 10 10 9 9 8 8 8 8 7 7 7 7 7 7 7 7 7 7 7 7 6 5 6 7 7 8 12 9 9 8 5 6 7 6
11 12 12 12 12 12 12 11 11 10 9 9 9 8 8 8 8 8 7 7 7 7 7 7 7 7 6 7 8 8 4 5 5 6 7 7 9 9 8 6 6 4 2
12 12 11 11 11 11 11 11 10 10 10 10 9 8 8 8 8 8 8 7 7 7 7 6 6 6 6 6 6 8 7 6 6 5 6 7 7 7 8 7 5 5 4
11 11 11 11 10 10 10 11 10 11 11 10 9 9 8 7 8 8 8 7 6 5 5 5 5 5 5 6 6 5 6 6 5 6 8 6 4 4 6 5 4 4 2
10 10 11 11 10 10 9 9 11 11 11 10 10 9 9 8 7 6 6 5 5 5 4 4 5 5 5 4 4 5 5 6 5 5 6 6 3 2 4 2 1 4 5
9 9 9 10 10 10 9 9 10 11 11 10 9 9 8 8 7 5 3 3 3 2 2 4 4 4 4 4 4 2 3 2 3 2 3 3 3 3 3 3 3 3 3
9 9 9 10 10 10 9 9 9 10 11 10 9 8 8 7 7 7 6 10 7 8 8 8 4 5 7 7 5 5 5 4 2 2 2 2 1 2 2 2 2 3 3
Wind_Direction
190 188 191 196 197 201 201 203 203 197 201 207 215 215 217 225 232 234 236 239 239 230 239 253 226 237 239 253 253 254 246 250 255 264 257 242 231 228 226 230 229 224 226
187 186 190 193 196 198 200 200 202 199 201 204 217 230 237 228 228 246 233 238 230 235 236 243 244 235 243 249 256 254 260 259 242 260 272 262 228 222 224 222 224 233 230
193 190 192 192 191 194 198 199 196 194 201 201 204 208 211 230 224 232 232 239 230 229 251 244 252 249 249 245 249 250 247 259 256 248 255 270 266 270 216 216 226 234 243
194 191 190 189 190 191 190 189 186 192 195 200 209 215 223 233 235 237 234 239 227 236 236 238 242 251 257 254 251 243 252 254 256 250 245 259 283 276 265 234 221 222 236
189 188 187 184 184 183 182 181 181 188 191 199 203 214 228 229 224 220 220 249 239 239 242 238 242 251 259 261 266 268 259 253 256 256 256 254 252 248 252 261 256 246 244
180 178 177 173 176 176 177 174 172 181 189 194 200 211 224 228 231 226 218 222 225 238 249 249 254 258 262 257 253 253 251 258 262 264 261 259 260 256 255 261 260 261 263
176 173 172 171 172 174 173 172 169 176 183 187 195 205 214 215 224 238 220 239 246 234 235 270 272 283 278 271 267 255 263 261 264 267 269 269 269 279 268 261 264 266 268
175 174 172 171 173 174 173 172 169 173 176 181 189 199 211 218 215 221 250 237 260 274 314 277 281 293 297 293 285 272 261 270 275 279 284 283 282 281 271 264 266 271 265
172 172 169 169 169 171 171 171 168 169 171 172 172 180 196 211 213 196 222 218 249 295 57 82 55 12 354 330 313 319 314 320 303 302 300 297 302 296 289 278 261 259 272
170 169 166 167 165 163 160 161 164 162 160 162 166 162 159 158 166 155 91 64 58 43 55 62 57 46 32 21 12 0 13 10 1 350 352 335 328 324 308 288 273 254 257
168 167 164 162 159 156 153 154 154 151 151 151 149 140 134 129 122 103 94 86 74 71 70 66 63 56 50 45 37 25 23 24 17 1 359 353 335 328 320 307 293 279 244
161 159 157 155 155 155 152 151 151 149 147 141 135 129 122 117 109 97 90 91 86 78 73 71 68 59 53 48 43 38 33 27 19 9 4 359 354 352 339 341 342 359 56
155 153 154 155 155 153 150 148 150 147 143 136 131 124 119 110 101 93 89 89 89 80 74 70 68 61 57 57 52 50 45 40 35 27 23 17 17 14 14 8 25 42 74
158 157 156 155 152 149 150 149 148 145 142 138 132 126 120 113 107 99 92 91 91 84 77 73 69 66 63 60 59 62 61 56 53 48 44 38 34 26 25 38 41 48 70
164 163 161 155 154 152 152 151 148 146 143 139 131 126 121 117 113 106 99 94 89 86 81 78 73 68 65 53 53 69 69 65 66 62 60 58 55 47 41 43 46 50 58
169 166 162 159 160 158 158 156 153 148 145 140 132 128 127 120 113 107 102 96 89 85 83 80 77 71 64 44 34 40 76 71 69 66 65 72 66 65 64 58 52 45 48
171 168 164 163 163 161 158 156 153 149 145 138 134 134 132 123 115 112 106 100 96 92 87 84 82 79 66 50 43 28 65 74 68 65 61 63 64 65 71 78 76 62 51
170 167 164 161 160 156 154 151 149 148 144 140 139 137 133 127 122 116 107 101 98 96 92 88 86 84 70 52 44 30 78 76 72 67 62 64 61 49 46 71 72 66 56
166 163 162 158 154 154 153 151 150 148 147 145 145 142 137 133 130 123 117 112 108 103 99 91 87 87 79 52 32 9 91 85 77 71 64 63 67 33 17 71 77 79 82
156 155 152 151 152 153 153 154 152 152 150 147 144 143 140 138 133 128 123 119 115 112 107 97 90 88 84 55 26 351 93 93 93 87 80 63 52 31 14 67 75 76 69
150 151 150 151 152 153 156 157 154 152 147 143 141 141 137 135 134 131 127 128 125 117 111 107 100 92 85 76 43 15 64 90 94 91 84 72 51 43 30 42 65 46 22
148 152 151 149 150 155 160 159 154 147 143 142 141 141 141 141 138 135 132 132 132 130 128 125 119 111 100 78 68 46 35 26 85 83 87 86 74 62 50 56 29 326 309
148 151 149 146 148 157 164 160 152 148 147 147 146 144 143 140 141 142 141 144 152 150 146 145 136 126 120 112 101 86 63 39 76 85 80 90 111 129 96 68 335 315 37
147 149 150 151 153 157 159 154 151 152 152 150 147 147 147 144 142 147 151 153 155 155 155 149 139 133 137 133 139 140 134 138 125 118 128 148 148 121 96 134 69 57 45
146 151 154 155 154 152 150 150 153 155 154 152 152 153 152 147 143 131 102 126 102 91 140 149 147 147 141 104 47 65 115 112 106 140 148 140 128 115 96 85 65 62 72
150 155 157 156 153 150 149 152 158 161 159 157 160 160 156 153 151 140 120 57 65 66 51 40 53 97 95 113 100 77 62 50 345 263 134 114 93 77 77 79 88 80 58
Height
1551 1553 1554 1556 1557 1558 1560 1561 1562 1563 1564 1565 1565 1566 1567 1567 1567 1567 1567 1567 1567 1568 1568 1569 1569 1570 1571 1572 1573 1573 1573 1573 1573 1573 1573 1572 1572 1572 1572 1573 1573 1573 1574
1548 1550 1552 1554 1555 1556 1558 1559 1560 1561 1562 1563 1564 1564 1565 1565 1566 1566 1565 1565 1566 1566 1567 1567 1568 1568 1569 1570 1570 1570 1571 1571 1571 1571 1571 1570 1571 1569 1570 1570 1570 1571 1571
1545 1547 1549 1551 1552 1554 1556 1557 1558 1559 1560 1561 1562 1563 1563 1564 1564 1564 1564 1564 1564 1565 1565 1565 1566 1566 1567 1568 1568 1568 1568 1569 1569 1569 1569 1569 1568 1568 1568 1567 1568 1568 1568
1541 1544 1547 1549 1550 1552 1554 1555 1556 1557 1558 1559 1560 1561 1562 1562 1562 1562 1563 1563 1563 1563 1564 1563 1564 1564 1565 1565 1565 1566 1566 1566 1566 1566 1566 1566 1566 1566 1565 1566 1565 1565 1565
1538 1541 1544 1546 1549 1551 1552 1553 1554 1555 1556 1557 1558 1559 1560 1561 1561 1561 1561 1561 1562 1562 1562 1562 1562 1562 1562 1563 1563 1563 1563 1563 1563 1563 1563 1563 1563 1563 1563 1562 1563 1562 1562
1536 1539 1542 1544 1547 1549 1551 1552 1553 1554 1554 1555 1557 1557 1558 1559 1559 1560 1560 1560 1560 1560 1560 1560 1560 1560 1560 1560 1560 1560 1560 1560 1560 1560 1560 1560 1560 1560 1560 1559 1559 1559 1559
1533 1537 1540 1542 1545 1547 1549 1550 1551 1552 1553 1554 1555 1556 1556 1557 1557 1558 1558 1558 1559 1559 1558 1558 1558 1558 1558 1558 1558 1557 1557 1557 1557 1556 1556 1556 1556 1557 1556 1556 1555 1555 1555
1531 1535 1537 1540 1543 1545 1547 1548 1550 1551 1552 1553 1553 1554 1555 1555 1556 1556 1557 1557 1557 1557 1557 1556 1556 1556 1556 1556 1555 1555 1555 1555 1554 1554 1553 1553 1554 1553 1553 1553 1553 1552 1552
1529 1533 1536 1538 1541 1543 1545 1547 1548 1549 1551 1552 1552 1553 1553 1553 1554 1554 1555 1555 1555 1555 1555 1555 1554 1554 1554 1554 1554 1554 1553 1553 1552 1552 1551 1551 1551 1551 1550 1550 1550 1551 1550
1528 1531 1534 1537 1540 1542 1544 1546 1547 1548 1550 1551 1551 1552 1552 1552 1552 1553 1553 1553 1554 1554 1554 1554 1553 1553 1553 1552 1552 1552 1551 1551 1550 1549 1549 1548 1548 1548 1548 1547 1547 1547 1547
1526 1529 1533 1536 1538 1541 1543 1545 1546 1547 1549 1550 1550 1551 1551 1551 1552 1552 1552 1552 1552 1552 1552 1552 1552 1552 1551 1551 1551 1550 1550 1549 1549 1548 1548 1547 1546 1546 1546 1546 1545 1545 1545
1525 1529 1532 1534 1537 1540 1542 1544 1546 1547 1548 1550 1550 1550 1551 1551 1551 1552 1552 1552 1552 1552 1552 1552 1551 1551 1551 1550 1550 1549 1549 1548 1548 1547 1546 1546 1545 1544 1544 1544 1544 1543 1543
1525 1528 1531 1534 1536 1539 1542 1544 1545 1547 1548 1549 1550 1550 1551 1551 1551 1551 1552 1552 1551 1551 1551 1551 1551 1551 1551 1550 1549 1549 1548 1548 1547 1546 1546 1545 1544 1543 1543 1543 1543 1543 1543
1523 1526 1530 1533 1535 1538 1540 1543 1545 1546 1548 1549 1550 1550 1551 1551 1551 1551 1551 1551 1551 1551 1552 1551 1551 1551 1551 1550 1549 1549 1548 1547 1547 1546 1545 1545 1544 1543 1543 1543 1543 1543 1543
1522 1525 1528 1531 1534 1537 1539 1541 1544 1545 1547 1548 1550 1551 1551 1551 1552 1552 1551 1551 1551 1552 1552 1552 1551 1551 1551 1550 1550 1549 1549 1548 1547 1547 1546 1545 1544 1544 1544 1543 1543 1543 1543
1520 1523 1526 1529 1532 1535 1538 1540 1542 1544 1546 1548 1549 1550 1551 1552 1552 1552 1552 1552 1551 1552 1552 1552 1552 1551 1551 1550 1550 1550 1549 1549 1548 1548 1547 1546 1545 1545 1545 1544 1544 1544 1544
1518 1521 1524 1527 1530 1533 1536 1539 1542 1544 1545 1547 1549 1550 1551 1552 1552 1553 1552 1552 1552 1552 1552 1552 1552 1552 1551 1551 1550 1550 1550 1549 1549 1549 1548 1548 1547 1547 1546 1546 1545 1545 1544
1516 1519 1522 1525 1529 1532 1535 1537 1540 1543 1545 1546 1548 1550 1551 1552 1552 1552 1553 1553 1553 1553 1553 1553 1553 1552 1552 1552 1551 1551 1551 1551 1550 1550 1549 1549 1548 1548 1548 1548 1547 1546 1546
1514 1517 1521 1524 1527 1530 1533 1536 1539 1541 1544 1546 1548 1549 1550 1551 1552 1552 1552 1553 1553 1553 1554 1554 1554 1553 1553 1553 1552 1552 1553 1552 1552 1551 1551 1550 1550 1549 1549 1549 1549 1548 1548
1513 1517 1520 1523 1526 1529 1532 1535 1538 1540 1543 1545 1547 1548 1549 1550 1551 1552 1552 1553 1554 1554 1554 1554 1555 1554 1554 1554 1554 1553 1555 1554 1554 1553 1553 1552 1552 1551 1551 1551 1550 1550 1550
1512 1515 1519 1522 1525 1528 1531 1535 1537 1539 1542 1543 1545 1547 1547 1549 1550 1551 1552 1553 1554 1554 1555 1555 1555 1555 1555 1555 1555 1555 1555 1556 1556 1556 1555 1554 1553 1553 1552 1552 1551 1551 1552
1511 1514 1518 1521 1524 1527 1530 1533 1535 1538 1540 1542 1544 1546 1547 1548 1549 1550 1551 1553 1554 1555 1555 1556 1556 1556 1556 1556 1556 1556 1556 1557 1557 1557 1557 1556 1555 1555 1554 1554 1553 1553 1554
1511 1514 1517 1519 1523 1526 1529 1532 1534 1536 1538 1540 1542 1544 1545 1547 1548 1549 1551 1552 1553 1555 1556 1557 1557 1557 1557 1557 1557 1557 1557 1557 1558 1558 1557 1557 1557 1557 1556 1555 1555 1555 1556
1510 1512 1515 1518 1521 1525 1528 1530 1532 1535 1537 1539 1541 1542 1544 1545 1547 1549 1551 1552 1553 1555 1556 1557 1558 1557 1558 1558 1558 1558 1558 1559 1559 1559 1559 1558 1558 1558 1558 1557 1557 1557 1556
1509 1512 1515 1518 1520 1523 1526 1528 1531 1533 1535 1537 1539 1541 1543 1544 1545 1547 1549 1551 1552 1554 1555 1556 1557 1557 1558 1558 1558 1559 1559 1560 1560 1560 1561 1561 1561 1561 1560 1560 1559 1558 1558
1508 1511 1513 1516 1519 1521 1523 1527 1529 1532 1534 1536 1537 1540 1541 1543 1544 1545 1547 1548 1550 1552 1553 1554 1555 1556 1556 1557 1557 1558 1559 1559 1559 1561 1561 1561 1561 1561 1561 1560 1560 1559 1559